sat.trackr.live / text

‹ back to catalog

FOX-1CLIFF (AO-95)

NORAD 43770 · 2018-099N

PAYLOAD ACTIVE UNKNOWN

§ Identity

Operator
Country
US
Launch date
2018-12-03
Launch site
AFWTR
Launch vehicle
Mass (kg)
RCS (m²)

Purposes: comms

External: N2YO · Heavens-Above · Gunter

§ Orbital elements

Epoch: 2026-09-14T14:57:17.484192Z

Period
94.22 min
Inclination
97.4286°
Eccentricity
0.0009013
Mean motion
15.28407823 rev/d
Perigee alt
474.4 km
Apogee alt
486.8 km
Semi-major
6,858.7 km
B*
3.2330e-4
RAAN
317.6039°
Arg perigee
41.0365°
Mean anomaly
319.1551°
Rev number
42,687

§ Raw data

FOX-1CLIFF (AO-95)1 43770U 18099N   26257.62311903  .00008878  00000+0  32330-3 0  99992 43770  97.4286 317.6039 0009013  41.0365 319.1551 15.28407823426872

JSON: /api/v1/satellites/43770 · /tle

For live sub-satellite position, see the globe view (requires WebGL).

§ Visibility from observer

Set your observer location to see the next 7 days of passes ≥ 10°. The values pass through the URL so the page stays shareable.

No JS? Fill the form by hand. The geolocation button needs JavaScript.

§ Radio — SatNOGS DB

ModeDescriptionDownlinkUplink
AFSK AFSK9k6 digital data 145.920 MHz
DUV DUV TLM 145.920 MHz
FM L/V FM (inactive) 145.920 MHz 1.267 GHz
FM U/V FM (inactive) 145.920 MHz 435.300 MHz

4 transmitters · refreshed weekly from db.satnogs.org